Regional Weather Roundup
Issued by NWS Cleveland, OH

Home | Current Version | Previous Version | Text Only | Print | Product List | Glossary Off
Versions: 1 2 3 4 5 6 7 8 9 10 11 12 13 14 15 16 17 18 19 20 21 22 23 24 25 26 27 28 29 30 31 32 33 34 35 36 37 38 39 40 41 42 43 44 45 46 47 48 49 50

000
ASUS41 KCLE 222310
RWRCLE
OHIO REGIONAL WEATHER ROUNDUP
NATIONAL WEATHER SERVICE WILMINGTON, OH
700 PM EDT TUE APR 22 2014

NOTE: "FAIR" INDICATES FEW OR NO CLOUDS BELOW 12,000 FEET WITH NO
SIGNIFICANT WEATHER AND/OR OBSTRUCTIONS TO VISIBILITY.

OHZ001>008-015>018-024>027-034-035-043-044-230000-
   NORTHWEST OHIO

CITY           SKY/WX    TMP DP  RH WIND       PRES   REMARKS
DEFIANCE       MOSUNNY   54  32  43 NW20G28   29.88R
FINDLAY        MOSUNNY   54  33  45 NW22G31   29.84R
TOLEDO EXPRESS CLOUDY    52  32  46 NW16G26   29.85R
TOLEDO METCALF CLOUDY    53  32  44 NW21G30   29.85R
LIMA           SUNNY     54  34  46 NW25G32   29.86R
$$

OHZ009>014-019>023-028>033-038-089-230000-
   NORTHEAST OHIO

CITY           SKY/WX    TMP DP  RH WIND       PRES   REMARKS
CLE-HOPKINS    PTSUNNY   52  35  52 N14G23    29.81R
CLE-LAKEFRONT  CLOUDY    48  40  73 NW7       29.78R
CUY CO. ARPT   CLOUDY    48  36  61 NW16      29.79R
LORAIN-ELYRIA  MOSUNNY   53  34  48 N13G22    29.80R
ASHTABULA      CLOUDY    45  36  70 NW5       29.77S
AKRON-CANTON   MOSUNNY   54  35  48 NW14      29.75R
WOOSTER        PTSUNNY   51  35  54 N18G26    29.78R
MANSFIELD      CLOUDY    55  35  47 NW18G24   29.78R
YOUNGSTOWN     PTSUNNY   48  35  60 NW18      29.74S
$$

OHZ042-051>053-060>062-070>072-077>081-230000-
  SOUTHWEST OHIO

CITY           SKY/WX    TMP DP  RH WIND       PRES   REMARKS
CINC-COVINGTON MOSUNNY   62  33  33 NW18G25   29.86R
CINC-LUNKEN    SUNNY     62  33  33 NW13G23   29.86R
HAMILTON       SUNNY     61  34  36 N20       29.87R
DAYTON         MOSUNNY   56  32  40 NW23G33   29.87R
WRIGHT-PAT AFB SUNNY     58  33  38 W21G30    29.85R
DAYTON GENERAL SUNNY     58  32  37 NW16G28   29.85R
WILMINGTON     SUNNY     59  31  34 W20G30    29.83R
$$

OHZ036-037-039>041-045>050-054>059-063>069-073>076-082>088-230000-
  CENTRAL AND SOUTHEAST OHIO

CITY           SKY/WX    TMP DP  RH WIND       PRES   REMARKS
COLUMBUS       MOSUNNY   62  31  31 NW20G28   29.78R
OSU AIRPORT    SUNNY     58  31  35 NW18G29   29.80R
BOLTON FIELD   SUNNY     59  34  38 W16G30    29.81R
RICKENBACK AFB SUNNY     63  25  23 W20G25    29.79R
NEWARK         SUNNY     60  30  32 NW17G28   29.77R
MARION         MOSUNNY   55  33  43 NW21G28   29.82R
LANCASTER      SUNNY     62  32  32 W14G26    29.78R
ZANESVILLE     SUNNY     62  30  29 W13G24    29.74R
NEW PHILLY     SUNNY     57  37  47 N15G24    29.75R
$$



USA.gov is the U.S. government's official web portal to all federal, state and local government web resources and services.